This is the latest recevied weather packets stored in our database for station/object IZ5MMH-14. If no packets are shown the sender has not sent any weather packets the latest 10 day(s).
| Time | Temp. | Humidity | Pressure | Rain* | Wind** | Luminosity | Snow |
|---|---|---|---|---|---|---|---|
| 1777513798 | 16.11° C | 79% | 1016.5 hPa | - | - | - | - |
| 1777513198 | 16.11° C | 79% | 1016.3 hPa | - | - | - | - |
| 1777512598 | 16.11° C | 81% | 1016.3 hPa | - | - | - | - |
| 1777511998 | 16.11° C | 81% | 1016.2 hPa | - | - | - | - |
| 1777511398 | 16.11° C | 83% | 1016.3 hPa | - | - | - | - |
| 1777510798 | 16.67° C | 82% | 1016.4 hPa | - | - | - | - |
| 1777510198 | 16.67° C | 81% | 1016.6 hPa | - | - | - | - |
| 1777509598 | 16.67° C | 80% | 1016.5 hPa | - | - | - | - |
| 1777508998 | 16.67° C | 79% | 1016.4 hPa | - | - | - | - |
| 1777508398 | 16.67° C | 76% | 1016.5 hPa | - | - | - | - |
| 1777507798 | 16.67° C | 75% | 1016.5 hPa | - | - | - | - |
| 1777507198 | 16.67° C | 78% | 1016.4 hPa | - | - | - | - |
| 1777506598 | 16.67° C | 77% | 1016.5 hPa | - | - | - | - |
| 1777505998 | 17.22° C | 76% | 1016.4 hPa | - | - | - | - |
| 1777505398 | 17.22° C | 77% | 1016.4 hPa | - | - | - | - |
| 1777504798 | 17.22° C | 77% | 1016.6 hPa | - | - | - | - |
| 1777504198 | 17.22° C | 78% | 1016.6 hPa | - | - | - | - |
| 1777503598 | 17.22° C | 78% | 1016.6 hPa | - | - | - | - |
| 1777502998 | 17.78° C | 77% | 1016.5 hPa | - | - | - | - |
| 1777502398 | 17.78° C | 77% | 1016.4 hPa | - | - | - | - |
| 1777501798 | 17.78° C | 79% | 1016.3 hPa | - | - | - | - |
| 1777501198 | 17.78° C | 83% | 1016.2 hPa | - | - | - | - |
| 1777499998 | 18.33° C | 84% | 1016 hPa | - | - | - | - |
| 1777499398 | 18.33° C | 86% | 1015.7 hPa | - | - | - | - |
| 1777498798 | 18.33° C | 88% | 1015.8 hPa | - | - | - | - |
* Rain since midnight (hover to see other rain measurements)
** Current wind speed in m/s (hover to see current wind gust speed)